Theta_e
342 342 343 344 346 348 347 348 349 348 348 348 348 349 349 348 348 348 346 345 345 345 344 343 345 346 346 346 346 347 348 349 350 350 350 349 348 346 344 343 344 345 344 343 344 344 343 346 344 336 331 333 335 335 337 341 342 340 340 341 342 344 344 343 342 338 328 321 322 321 319 319 318 317
341 341 342 342 344 345 346 347 349 349 349 349 349 349 349 349 349 350 349 347 346 345 343 343 344 345 346 348 348 349 350 350 350 349 348 347 345 341 339 341 343 343 342 341 341 341 342 342 338 331 329 330 330 329 330 334 336 335 335 337 342 345 345 343 342 341 334 324 322 322 319 319 319 317
341 341 341 342 342 343 344 346 348 349 350 350 350 350 350 350 350 350 349 348 346 345 343 343 343 343 344 345 347 348 348 347 346 344 343 341 339 338 338 340 341 340 340 340 340 340 339 337 332 331 332 333 332 331 330 330 331 332 334 336 341 345 346 344 341 340 338 329 322 322 321 319 319 318
343 342 342 342 343 343 344 345 346 348 349 349 350 350 350 350 350 349 349 348 347 346 345 344 345 345 344 343 343 343 343 342 340 339 338 338 338 338 339 339 339 339 340 341 341 339 335 332 332 333 335 336 337 336 334 333 332 333 335 336 340 345 346 344 341 339 339 335 326 322 322 320 319 318
343 342 342 342 343 343 345 346 346 347 347 348 349 349 349 349 349 349 350 350 349 347 346 346 346 346 346 344 343 342 341 340 339 339 338 338 337 336 336 334 336 340 342 342 341 337 334 333 334 335 336 337 338 339 339 338 336 334 336 337 340 344 346 345 342 339 339 339 333 326 322 321 320 318
344 343 343 343 343 344 345 346 346 347 346 347 347 347 348 348 348 349 350 351 350 348 346 345 346 346 346 345 343 342 340 339 338 337 335 334 332 332 331 331 335 341 344 343 341 337 334 334 335 336 336 337 337 338 340 341 341 338 336 338 340 343 345 346 344 340 339 340 338 332 325 322 321 319
344 343 342 342 342 343 344 345 346 347 347 347 347 347 347 346 347 348 349 350 350 349 347 345 345 346 344 342 341 339 338 337 335 333 331 329 328 329 330 331 336 342 345 344 341 338 334 334 335 336 336 337 337 336 337 340 342 340 338 338 340 342 344 346 345 343 341 340 340 337 331 325 322 320
343 343 342 342 342 342 342 344 345 346 346 346 346 345 345 344 344 346 347 349 350 349 347 344 343 343 341 338 337 336 335 334 333 330 328 327 326 326 327 327 331 336 339 339 337 334 333 332 333 333 333 334 333 331 332 334 337 338 338 339 340 341 343 345 345 343 342 341 341 340 337 331 325 321
344 344 343 343 344 344 342 342 342 343 344 344 344 343 343 343 343 343 345 347 348 348 346 343 340 339 338 335 334 335 334 332 331 329 326 326 325 324 324 324 325 327 328 329 328 327 327 328 327 327 327 327 327 326 327 328 331 334 337 338 340 340 341 343 345 343 341 341 342 342 340 336 331 325
342 342 342 342 344 345 344 342 341 341 341 342 342 342 342 342 342 342 343 345 346 346 345 342 338 335 334 333 332 333 332 330 329 328 326 326 326 325 325 324 324 324 324 324 324 324 324 324 323 323 323 324 324 325 326 327 329 332 335 338 339 340 341 342 344 344 341 339 340 342 342 340 336 330
341 341 340 340 341 342 342 341 341 340 340 339 338 338 339 340 340 340 341 343 343 343 342 339 337 335 334 333 332 333 333 332 332 333 331 328 326 327 326 325 324 323 323 323 323 323 323 323 323 323 323 324 325 325 327 329 330 331 334 336 339 340 341 342 343 343 342 339 339 341 342 342 340 336
340 340 340 340 339 339 339 339 339 339 339 338 337 337 337 338 339 339 339 340 341 340 339 338 337 337 337 336 335 335 335 336 336 337 336 333 332 331 329 327 326 325 324 324 324 323 323 323 323 324 323 324 326 327 329 331 332 332 332 334 337 340 342 342 343 343 341 340 339 340 342 342 341 339
338 338 338 338 337 337 336 336 336 336 336 337 336 335 337 338 338 339 340 340 341 340 339 339 340 341 341 339 339 338 337 337 337 337 338 337 337 338 335 330 327 328 328 328 327 325 325 325 324 324 324 324 326 328 331 334 335 334 333 332 334 338 342 343 343 342 341 340 339 340 341 342 342 341
338 337 336 336 335 335 335 334 334 334 335 335 334 334 335 337 338 338 338 340 342 343 343 343 343 344 344 341 341 340 337 336 337 337 339 340 339 339 339 334 328 328 330 331 331 329 329 328 326 325 324 325 327 329 331 334 336 336 335 333 331 334 339 343 343 342 341 340 339 340 341 341 341 341
340 340 339 338 338 337 336 333 332 332 333 334 333 333 334 335 338 339 339 340 342 344 345 345 345 346 345 342 341 340 338 337 338 339 339 341 340 340 340 337 330 328 330 333 333 332 332 332 330 327 325 326 327 328 329 333 337 337 336 335 332 331 334 339 343 342 341 341 340 340 341 341 341 342
342 342 342 341 341 341 340 337 335 333 331 330 330 331 331 333 335 337 338 339 341 343 345 345 344 344 343 342 340 340 340 339 340 340 340 340 340 339 338 336 333 332 333 335 336 335 333 334 333 329 326 327 328 328 329 333 337 337 336 335 334 331 331 334 339 342 341 341 341 341 342 342 342 342
343 343 343 343 343 343 343 342 342 339 335 333 332 331 332 332 332 333 335 336 337 339 341 342 342 340 340 341 338 338 341 342 342 341 340 339 338 337 336 336 335 336 337 338 339 338 334 335 336 332 327 329 330 330 331 335 337 338 338 337 336 333 330 330 334 339 341 341 342 342 342 343 343 343
343 343 343 343 343 343 344 344 344 344 343 341 340 339 339 338 337 336 336 335 335 335 336 338 336 333 334 336 333 333 338 340 339 338 338 337 338 338 339 339 339 339 340 341 343 341 336 337 338 334 330 332 332 331 332 335 337 338 338 337 337 334 330 328 330 334 338 341 342 342 343 343 343 343
343 343 343 344 344 344 344 344 344 345 345 345 344 344 344 343 342 341 340 339 338 337 337 337 335 331 331 332 332 333 336 338 339 340 340 341 342 342 342 342 341 341 342 343 344 343 340 340 341 338 335 336 334 332 332 333 334 336 337 337 337 335 332 328 327 330 334 338 340 341 342 343 343 343
343 343 343 343 344 344 344 344 344 345 345 345 345 345 345 345 344 343 342 342 341 341 340 340 339 338 337 337 338 340 341 342 343 343 343 345 346 346 346 346 344 343 343 344 345 346 344 343 344 343 339 338 336 332 331 332 332 334 336 337 337 337 335 331 328 328 331 335 339 341 342 343 344 344
344 344 343 343 343 344 343 342 344 345 346 346 346 346 345 345 345 344 343 343 342 342 342 341 341 341 341 341 341 342 342 343 343 343 344 347 348 349 349 349 347 346 346 346 347 348 347 346 348 347 344 341 337 333 330 331 332 334 336 338 340 339 338 336 333 330 330 332 335 339 342 343 344 344
345 345 344 344 343 343 344 344 344 345 346 346 346 346 346 347 347 347 346 346 345 345 344 344 343 343 342 342 342 342 342 342 342 342 343 346 349 350 350 350 350 349 347 346 348 350 350 349 351 351 349 345 339 334 333 333 333 334 335 337 339 341 341 340 338 335 333 332 332 335 338 341 343 343
347 346 346 345 344 344 344 344 345 345 346 347 347 348 349 349 349 349 349 349 349 348 347 346 346 345 345 344 344 343 343 343 343 343 343 345 349 351 351 351 352 352 350 348 350 352 352 352 352 352 352 350 345 338 337 336 335 335 335 335 337 340 342 342 342 340 339 338 336 334 334 335 337 338
347 348 347 347 346 346 346 346 346 347 348 349 349 350 350 350 350 350 350 350 350 350 350 349 349 348 348 347 346 345 345 345 345 344 344 347 350 352 351 352 353 354 353 351 352 353 353 353 353 353 354 353 351 347 344 342 339 337 336 335 336 338 340 342 343 342 342 341 339 338 336 334 333 334
347 347 347 348 348 348 348 348 348 349 349 349 349 350 350 350 350 351 351 351 351 351 351 351 350 349 349 348 348 347 346 346 346 345 346 349 351 352 352 353 354 354 354 353 353 354 354 354 354 354 354 354 354 353 351 348 344 340 338 337 336 336 339 341 343 344 344 344 343 342 341 339 338 337
349 348 348 349 349 349 349 349 349 349 349 349 349 349 349 350 351 351 351 350 349 350 350 351 351 350 348 348 348 348 347 347 346 346 348 351 353 353 354 355 355 355 355 354 354 354 354 354 354 354 355 354 354 354 353 351 348 344 342 340 338 338 339 340 342 343 345 346 347 346 346 345 344 343
351 351 351 351 350 350 350 350 349 349 349 349 348 348 349 349 350 350 349 349 348 348 348 349 349 349 349 348 348 348 348 347 348 349 351 353 354 354 354 354 354 354 353 353 353 354 354 354 354 353 354 354 354 354 354 353 351 349 347 345 343 343 343 342 341 341 342 344 346 347 348 348 347 346
351 352 351 351 351 351 351 351 351 350 350 349 349 349 350 350 349 349 349 349 349 349 349 349 349 349 349 349 348 348 348 349 350 352 353 354 354 354 353 353 352 352 352 352 353 354 354 354 353 353 353 354 354 354 354 353 353 353 352 350 348 347 347 347 346 344 343 342 342 344 346 346 346 347
349 350 351 351 351 351 351 351 351 350 350 351 351 351 351 350 350 350 350 350 350 350 350 351 351 351 350 349 348 348 350 351 352 354 354 354 354 353 353 352 352 351 352 352 353 354 354 353 353 353 354 354 353 353 353 353 353 353 353 352 351 349 349 350 350 349 347 344 341 341 342 343 343 345
342 343 346 348 349 350 350 350 350 351 351 352 352 351 351 351 350 350 350 350 351 351 351 352 352 352 352 350 350 349 350 351 352 353 354 353 353 353 352 352 351 351 352 353 353 353 353 353 353 354 354 354 353 353 353 353 353 353 353 353 353 352 352 351 351 352 351 349 345 342 341 341 341 341
334 333 335 339 343 343 343 343 344 345 346 347 347 347 347 348 349 349 350 349 350 350 352 353 353 353 353 353 352 352 352 352 353 353 353 353 353 352 351 351 351 350 350 351 352 352 351 351 352 353 354 354 354 354 354 354 354 354 353 354 353 353 352 352 352 353 352 352 349 346 342 340 339 339
327 326 327 329 332 332 331 330 331 332 332 332 333 335 336 338 342 344 346 347 349 352 352 352 352 353 353 353 353 353 353 353 352 351 349 348 347 346 346 346 346 344 345 348 350 349 349 349 350 351 353 354 355 355 354 354 354 354 354 353 353 352 352 352 352 352 352 352 352 349 346 343 342 342
322 323 323 324 325 326 325 325 325 326 326 326 326 326 327 328 330 332 335 339 344 349 351 352 352 352 352 352 352 351 349 347 344 341 340 340 339 340 342 343 342 341 343 345 346 346 348 350 351 351 351 352 353 352 352 353 353 354 353 353 352 352 352 351 351 351 351 351 351 350 349 346 345 345
319 320 323 325 325 325 324 324 324 326 326 326 326 326 326 327 327 327 330 335 339 342 345 347 347 347 346 346 346 344 341 338 336 336 339 340 341 342 345 346 345 345 345 346 346 347 350 352 352 351 350 350 350 350 350 352 353 352 352 352 352 352 352 352 352 352 352 352 352 351 351 349 348 348
321 325 327 326 325 324 324 325 327 329 329 329 330 330 330 330 330 331 334 336 339 340 341 341 342 342 342 343 342 341 340 340 339 340 343 347 349 349 350 350 350 350 351 351 351 352 353 353 352 351 351 350 350 349 348 349 351 352 352 352 352 352 352 353 353 353 353 353 353 353 352 351 350 350
327 330 329 326 324 322 322 323 326 328 328 329 331 333 333 333 333 335 337 338 340 342 342 342 342 342 342 343 344 344 344 344 343 344 347 351 353 352 352 352 351 352 353 353 353 353 353 353 352 351 351 350 350 350 348 347 349 352 353 354 353 353 353 353 353 353 353 353 353 353 352 352 351 350
330 332 331 328 326 323 320 320 320 321 322 323 325 328 330 332 334 337 338 338 339 341 343 343 343 344 344 344 344 344 344 345 345 346 347 349 350 350 349 349 349 350 350 351 352 352 352 352 352 351 351 350 350 350 351 350 351 353 354 354 354 353 353 353 353 353 352 352 352 352 352 351 351 350
331 332 331 330 328 325 322 320 318 318 318 318 318 320 322 324 328 332 335 337 340 342 344 344 344 344 344 344 344 345 345 345 345 345 346 347 349 348 347 347 347 347 348 348 349 350 350 350 351 351 351 350 349 350 352 353 353 354 354 354 354 353 353 353 352 352 352 352 352 352 352 351 351 350
329 329 329 329 328 326 324 321 319 317 317 317 318 318 318 318 319 322 327 332 335 338 340 340 340 341 342 343 343 343 343 344 345 345 345 346 347 345 345 346 346 346 346 346 345 346 347 348 348 349 350 350 350 351 353 353 353 353 353 353 353 352 352 352 352 352 352 353 353 352 352 351 351 352
327 327 327 326 326 325 323 321 319 318 317 317 317 317 318 318 318 319 320 323 325 327 329 331 332 335 339 341 342 342 341 342 343 344 344 344 344 343 342 344 344 345 345 344 341 340 343 346 348 348 348 350 351 352 352 352 352 352 352 351 351 351 351 352 352 352 352 352 353 352 352 352 352 353
325 325 324 324 323 322 321 320 319 318 317 316 316 316 316 317 318 319 320 320 321 322 323 324 325 327 329 332 335 336 338 340 342 342 341 339 338 338 339 340 341 342 343 343 341 339 340 344 346 347 347 349 350 350 349 350 351 351 351 351 350 351 351 352 352 353 353 353 352 352 352 352 351 352
322 322 321 321 320 320 320 319 319 318 317 316 316 316 315 316 317 317 318 319 320 321 321 322 323 323 323 325 327 328 331 333 336 338 337 335 334 335 335 335 335 336 337 338 338 337 337 340 343 345 346 347 347 348 348 347 347 348 350 350 350 350 350 351 351 351 351 352 352 351 351 351 351 351
320 320 320 319 319 320 320 319 318 317 317 317 316 316 315 315 315 316 317 318 318 319 319 320 320 320 321 322 323 323 325 326 328 330 331 331 331 332 332 330 330 330 331 331 332 333 334 335 337 340 342 343 344 345 346 345 345 345 346 347 347 347 348 349 349 350 350 350 350 350 350 350 350 351
320 320 320 320 320 320 320 319 318 318 317 317 317 316 315 315 315 315 315 316 316 317 318 318 319 319 319 320 320 321 321 322 323 324 325 326 326 326 327 326 326 327 327 328 329 330 331 332 334 336 339 341 342 342 343 343 344 343 342 341 340 341 343 344 344 345 346 346 346 347 347 347 349 350
321 321 321 320 320 320 320 319 319 318 318 317 317 316 316 315 315 315 314 314 314 315 315 316 317 317 318 318 319 319 319 320 321 321 322 322 323 323 324 324 324 324 324 326 327 328 329 331 332 335 337 338 340 340 340 341 341 340 339 338 337 337 339 340 341 341 341 340 340 340 341 343 346 348
Wind_Speed
9 10 10 10 9 9 9 8 8 8 7 7 7 7 8 9 10 11 12 13 13 12 12 11 11 10 10 11 11 12 13 14 14 15 15 17 19 21 21 21 20 19 20 21 21 21 18 16 16 17 18 18 17 17 16 17 18 19 21 22 21 22 24 25 24 23 22 22 20 18 16 14 15 15
8 9 10 10 10 10 10 10 10 9 8 8 8 8 8 9 9 10 12 13 13 12 12 11 11 11 10 11 11 11 13 14 15 17 18 20 21 21 21 20 19 19 20 21 21 19 16 14 14 15 17 18 18 17 17 17 17 18 20 21 20 20 22 23 24 23 22 22 21 19 17 15 14 14
8 9 9 10 11 11 11 11 12 11 11 10 10 9 9 10 10 10 11 12 12 11 10 9 10 11 11 11 12 13 14 16 17 19 20 21 20 20 19 19 19 20 20 20 19 17 13 12 12 13 15 17 18 18 18 17 18 18 19 20 19 19 20 22 22 22 21 21 21 19 17 15 13 13
7 8 9 9 10 11 11 12 12 13 13 13 12 11 11 11 12 11 11 12 11 10 9 8 7 8 9 10 11 13 15 16 18 19 19 19 18 18 18 18 19 19 18 17 16 14 11 11 12 14 15 16 17 18 19 18 18 18 19 19 18 17 18 20 21 21 21 20 20 20 18 16 13 12
8 8 9 9 10 11 11 11 12 13 14 14 14 13 13 13 13 12 11 12 13 11 9 9 8 8 9 9 10 12 13 14 15 16 15 15 15 16 16 17 16 16 15 14 14 12 12 13 14 15 16 17 17 18 19 19 19 18 19 19 17 16 17 18 18 19 20 20 19 19 18 16 14 12
9 9 9 9 9 10 11 11 11 12 12 13 13 13 13 14 13 12 12 12 14 14 13 12 11 10 10 11 10 11 11 12 13 13 12 12 12 13 15 15 14 12 12 13 13 13 14 15 16 17 17 17 18 18 19 20 20 19 18 18 17 15 15 17 17 17 18 19 18 17 17 17 15 12
10 11 10 8 8 9 11 11 11 11 11 11 11 12 12 12 12 12 13 13 15 16 16 15 14 13 13 12 11 10 10 10 10 10 9 10 10 12 13 13 12 11 12 14 15 15 16 16 17 17 18 18 18 18 19 19 20 20 18 17 16 14 14 15 16 16 16 17 18 17 16 16 15 13
10 11 11 9 8 10 11 10 10 11 11 11 11 11 11 11 11 12 13 14 15 17 18 17 15 14 14 13 11 10 10 9 8 9 9 10 10 10 11 12 12 12 13 14 15 16 16 17 17 18 18 19 19 19 19 19 20 20 17 16 16 14 13 14 15 15 15 15 16 16 15 15 14 13
12 12 12 11 11 12 12 11 10 10 10 10 11 11 11 11 11 12 13 14 16 17 18 18 15 14 14 12 10 10 10 8 8 9 10 11 11 11 11 11 12 13 14 15 15 16 16 17 18 19 19 20 20 20 19 19 19 18 16 14 15 15 13 13 14 15 14 13 14 15 15 14 13 13
14 14 14 13 13 13 13 12 11 10 10 11 11 12 12 12 12 13 14 15 16 17 18 18 15 13 12 11 9 9 10 10 11 12 12 12 12 13 13 13 14 15 16 17 17 18 18 19 19 20 20 21 21 20 19 19 18 16 14 13 14 15 14 13 13 14 13 12 12 13 14 14 13 12
15 15 15 15 15 15 15 14 12 12 11 12 12 12 12 12 13 14 14 15 16 17 17 16 15 13 11 11 10 10 11 12 13 15 15 14 13 15 16 17 17 17 18 19 19 20 20 20 21 21 22 22 21 20 19 18 17 16 14 12 13 14 14 13 13 14 13 11 10 10 12 13 13 12
16 16 15 15 16 16 16 15 14 13 13 13 13 12 12 12 13 14 14 15 15 16 16 15 14 13 13 12 12 13 13 14 15 16 17 17 17 18 19 19 19 20 20 20 20 20 20 21 21 21 22 21 20 19 18 18 17 16 14 13 13 13 14 14 14 14 14 12 9 9 9 11 12 11
16 15 15 15 15 15 16 16 15 15 15 15 15 14 14 14 15 15 15 15 15 15 16 16 15 15 16 16 16 15 15 15 16 17 18 20 21 23 23 21 20 21 22 22 21 20 20 22 22 21 21 20 18 17 17 17 17 16 16 15 14 14 14 15 15 14 13 12 9 8 8 8 10 11
14 14 15 15 15 15 16 16 17 16 16 17 16 16 16 16 16 17 17 16 16 16 17 17 17 19 20 19 19 19 18 18 18 19 21 22 23 25 27 25 21 20 23 26 25 22 21 22 23 21 20 19 17 16 16 16 17 17 17 17 16 16 15 15 16 15 13 12 10 8 7 7 7 9
13 13 14 14 15 16 16 17 18 18 18 18 17 17 16 16 16 17 17 17 17 18 19 19 20 21 22 21 21 21 21 21 22 23 23 25 26 26 28 28 25 21 24 29 30 28 24 24 24 22 20 19 17 17 16 16 17 18 18 18 18 17 16 15 16 16 14 12 10 9 7 6 6 7
15 14 14 14 14 14 15 16 17 18 19 19 19 18 17 17 17 17 18 19 19 20 21 22 22 23 24 24 23 23 23 23 25 26 26 27 28 28 28 30 29 26 26 29 32 32 28 25 26 24 21 19 18 17 16 15 16 17 18 18 17 17 17 16 16 16 15 13 11 10 8 7 6 6
18 18 17 16 16 15 15 16 16 17 18 18 17 17 17 17 17 17 18 19 21 22 23 25 26 25 25 25 25 23 24 26 27 28 28 28 28 29 30 31 31 29 29 30 33 35 31 28 28 26 22 20 19 17 15 14 14 16 17 17 17 17 17 17 16 16 16 14 12 11 10 9 8 8
22 21 20 20 19 18 17 18 18 18 18 17 17 17 17 17 17 17 18 18 19 21 23 26 27 26 26 27 26 24 25 27 28 28 28 28 29 30 32 33 33 31 30 30 32 35 33 30 30 29 24 22 21 17 14 12 13 15 17 17 17 16 16 17 17 17 17 15 13 12 12 11 11 10
23 23 22 22 21 20 19 19 18 18 18 19 19 20 20 20 20 20 20 19 20 21 22 24 25 25 24 25 25 24 23 25 26 26 28 29 30 32 34 34 34 33 31 30 31 34 34 32 31 30 26 25 22 17 14 13 13 15 17 17 16 15 15 16 17 17 17 16 15 14 13 13 13 12
24 23 23 23 22 22 21 20 19 19 19 20 21 22 22 23 23 24 23 22 22 23 23 24 24 24 23 23 23 22 22 23 24 26 29 31 31 34 36 36 36 34 32 30 30 33 35 32 31 30 27 25 23 18 15 14 14 15 15 16 16 15 15 16 16 17 17 17 16 15 15 15 14 14
25 25 24 24 24 24 23 21 20 21 23 24 24 25 25 25 26 27 26 25 25 25 25 26 26 27 26 25 25 24 24 25 26 28 31 33 33 34 36 37 37 35 34 32 31 33 33 30 29 30 28 26 25 21 17 16 15 14 13 13 14 14 14 14 16 17 18 18 17 17 17 17 17 17
25 26 25 25 26 27 26 25 25 25 27 27 27 27 28 28 30 30 29 29 29 29 29 29 29 29 29 29 29 28 27 27 27 30 33 34 34 35 36 36 36 36 34 31 30 31 31 29 29 30 29 28 26 23 20 18 16 15 14 13 13 13 13 14 15 16 17 18 19 19 19 19 19 19
24 24 25 25 27 28 29 29 28 28 28 28 29 29 30 32 34 33 32 32 33 33 33 33 33 33 33 32 31 31 30 29 30 32 34 34 34 35 35 34 33 34 34 30 28 30 31 29 28 28 29 30 29 25 23 22 20 19 18 17 16 15 15 15 15 15 16 17 18 20 21 21 21 21
26 25 25 25 26 27 28 29 29 29 29 30 31 31 32 33 34 32 31 32 32 32 33 33 33 34 34 34 34 34 33 32 32 33 34 35 34 34 34 33 32 32 32 29 27 29 30 29 29 28 28 31 32 30 29 27 26 24 23 22 21 19 18 18 18 17 17 16 17 18 19 20 21 22
29 28 28 27 28 28 29 30 31 31 31 31 32 32 32 31 30 29 30 30 30 31 32 32 32 33 33 34 35 35 35 34 33 33 34 34 33 31 31 32 31 32 30 27 26 29 30 30 30 30 30 32 34 34 34 33 30 28 26 26 25 23 21 20 20 19 18 18 17 17 18 19 20 22
29 30 29 29 30 30 30 31 31 31 31 31 31 31 30 29 28 28 30 31 31 32 33 34 34 34 34 34 35 35 35 34 33 32 33 32 31 30 30 30 32 33 31 28 28 30 32 32 31 31 32 33 34 35 36 37 35 32 30 28 27 25 24 24 23 22 21 20 20 20 20 20 21 21
27 28 28 29 29 29 29 30 30 30 30 30 30 30 29 29 29 29 31 32 32 33 34 35 36 36 35 35 35 33 32 31 30 30 31 31 30 30 30 30 32 34 34 32 31 32 34 34 33 32 32 34 35 36 37 39 38 36 35 33 31 29 28 27 27 26 25 24 23 23 23 23 23 22
24 25 26 26 27 27 27 28 28 28 29 28 28 28 28 28 28 29 30 30 30 31 32 33 34 34 34 33 33 31 29 28 29 30 30 30 29 30 31 32 34 36 36 35 33 33 33 33 33 32 32 33 34 35 37 39 40 39 39 38 37 34 32 30 30 28 27 26 26 26 26 25 24 24
19 20 21 22 23 24 25 26 26 27 26 26 26 25 24 24 25 26 27 27 27 28 29 30 31 31 30 30 30 29 28 29 30 30 31 31 31 32 34 35 37 37 36 34 32 30 28 29 29 29 30 31 32 34 36 38 40 40 38 39 40 39 36 33 31 29 27 26 26 26 27 26 25 26
18 18 19 20 20 21 22 24 24 24 23 22 21 21 21 21 21 22 24 24 25 25 27 28 29 29 28 28 29 29 30 31 31 31 32 33 34 35 35 36 37 36 34 31 29 27 26 26 25 25 26 27 29 31 31 33 37 38 35 35 37 39 38 34 31 29 28 26 25 26 26 26 26 27
18 19 19 20 20 20 20 21 21 21 20 20 19 19 19 20 21 22 23 23 23 23 24 26 27 27 27 27 28 29 30 31 32 31 32 34 35 34 32 33 36 36 33 30 28 26 26 26 24 23 23 24 25 27 27 28 32 34 33 32 33 36 36 34 32 31 29 28 28 27 26 25 26 27
17 17 18 18 18 19 19 18 19 19 19 19 19 19 20 20 21 22 23 24 23 22 21 23 24 24 25 26 26 27 28 29 30 29 29 31 32 31 30 31 34 36 35 32 29 27 27 26 24 23 22 23 24 24 24 26 29 31 32 31 30 32 33 32 31 30 27 27 30 29 27 26 26 26
17 16 16 16 16 16 17 17 17 18 18 18 18 19 19 20 21 21 22 23 22 21 21 21 23 23 24 25 25 25 27 28 28 28 28 29 30 30 30 30 32 34 35 33 30 28 27 26 24 23 23 23 23 22 23 26 29 29 30 30 30 30 29 28 28 27 25 25 27 28 28 27 26 24
16 15 15 15 15 16 16 17 17 17 17 16 17 17 18 18 18 18 18 18 19 20 21 21 22 24 25 26 26 27 28 29 29 28 27 26 26 27 28 28 30 31 31 31 30 28 26 24 23 23 23 23 24 24 24 26 29 29 29 29 28 28 27 25 24 24 23 22 24 26 27 26 24 22
16 14 13 13 14 14 15 15 15 15 15 15 16 16 17 16 16 15 15 15 15 16 18 19 20 21 22 23 24 25 26 27 27 26 24 23 23 24 25 26 27 27 27 28 29 26 24 22 21 22 23 24 25 27 26 26 27 28 28 28 27 27 26 24 22 22 22 22 23 25 27 27 25 22
15 13 12 12 13 13 14 14 14 15 15 16 16 16 16 16 16 15 15 15 15 16 17 19 20 20 21 21 22 22 23 23 24 23 21 22 22 23 23 23 24 23 24 26 27 25 23 22 20 20 23 23 24 27 29 27 25 25 26 27 28 27 26 25 24 24 24 24 24 26 28 29 28 25
14 13 13 13 13 14 14 15 16 16 16 17 17 17 17 17 17 16 16 16 16 16 18 19 19 20 21 21 21 22 21 21 22 23 23 23 22 20 20 21 21 22 22 22 23 23 23 23 21 21 22 23 24 29 31 28 24 23 24 26 28 28 27 27 27 27 26 26 26 26 28 30 30 28
13 13 14 15 15 16 17 17 18 18 18 19 19 18 19 19 19 19 18 18 18 18 18 19 19 20 21 21 22 21 21 21 21 22 22 22 20 17 17 19 22 23 24 24 23 23 24 24 24 24 23 23 24 27 29 28 26 24 23 25 28 29 29 28 29 29 29 28 28 27 27 29 30 29
13 14 16 17 18 19 19 20 20 20 20 20 20 20 21 21 22 21 21 21 21 22 22 23 23 23 24 25 26 26 25 25 24 23 23 23 22 20 19 19 21 24 27 29 29 28 27 27 26 27 26 25 24 24 25 27 29 28 26 26 28 29 29 29 29 30 30 29 28 28 28 29 29 29
15 16 18 19 20 22 22 23 22 22 22 22 22 22 22 22 23 24 24 24 25 25 25 25 26 26 27 28 29 29 29 29 30 30 29 28 29 29 26 24 24 26 29 33 35 34 31 28 26 26 26 27 26 25 25 27 31 32 30 28 28 28 28 28 27 28 29 27 26 26 27 28 28 29
18 19 20 21 22 23 23 23 23 23 23 23 23 23 23 23 24 24 25 26 26 27 27 27 27 28 29 30 31 32 33 33 34 34 34 32 32 31 30 28 28 28 29 32 35 34 32 30 28 26 26 28 28 28 28 29 32 34 33 31 29 28 27 27 26 26 26 26 25 26 27 27 27 28
21 22 22 23 23 23 22 22 22 22 22 22 22 23 23 24 24 25 25 25 26 27 27 28 29 29 30 30 31 32 34 35 36 37 37 36 35 35 34 33 32 31 30 31 33 34 33 33 32 30 29 29 30 30 32 35 38 38 36 35 34 31 28 27 26 26 26 26 25 25 27 27 27 28
22 22 23 23 23 22 22 22 22 22 23 22 22 22 23 23 24 25 26 26 27 27 28 28 29 30 31 32 32 32 33 34 35 37 38 38 38 39 39 39 37 35 33 33 35 35 34 35 36 35 33 31 30 29 32 37 40 41 41 41 40 39 36 33 31 30 30 29 28 26 25 26 26 27
22 22 23 23 23 22 22 22 23 24 25 25 25 25 25 25 25 25 25 27 28 29 30 30 31 32 33 34 35 35 35 35 35 36 37 38 38 39 40 40 39 38 37 36 36 36 35 33 33 33 31 30 29 30 32 34 36 40 43 45 44 44 43 41 39 37 36 34 33 30 28 26 25 26
22 22 23 23 23 22 22 23 24 25 26 27 27 28 28 29 28 28 27 27 28 29 31 32 33 34 35 35 36 37 38 38 39 38 38 38 38 38 39 39 39 39 39 37 36 36 34 31 29 28 28 29 29 31 32 34 35 38 41 42 41 40 38 36 35 35 35 36 36 34 31 28 28 28
Wind_Direction
242 245 250 251 251 253 253 252 258 265 272 283 294 303 311 317 322 324 320 317 318 321 324 323 316 313 313 310 303 300 301 302 305 310 314 317 319 320 322 323 324 328 332 335 334 333 336 342 345 346 347 348 347 347 351 354 356 356 356 357 0 5 7 9 12 16 18 19 21 25 27 23 13 12
244 247 249 249 250 253 254 253 258 266 272 277 285 292 301 308 315 320 320 316 313 313 314 312 306 299 296 299 300 299 299 301 303 306 309 311 313 314 317 320 323 326 329 331 330 329 333 340 344 347 350 351 351 349 348 349 351 351 351 352 356 1 5 8 10 14 17 18 20 24 27 27 18 11
246 248 251 252 252 255 255 254 258 265 271 276 281 287 293 301 306 310 312 311 310 311 311 312 310 302 295 292 292 291 293 297 301 304 307 308 311 315 319 321 323 325 328 329 327 327 333 340 343 347 350 352 353 351 348 346 347 348 348 348 351 356 2 6 9 12 16 17 18 22 26 28 24 14
246 247 250 252 254 256 257 257 258 263 268 272 276 282 288 294 299 302 303 302 303 305 307 311 319 318 311 304 298 295 295 298 302 306 310 313 316 318 320 321 323 325 327 326 325 329 337 340 341 343 345 347 350 350 349 346 344 345 344 344 346 350 356 3 8 10 14 16 17 19 24 29 29 21
248 247 249 250 252 255 257 259 259 261 264 268 271 277 283 288 293 294 293 294 298 301 303 306 312 319 318 315 311 306 304 305 307 312 317 321 323 323 322 322 324 327 327 324 324 329 335 336 336 337 338 340 343 345 346 346 343 342 341 340 340 344 349 357 4 9 12 15 16 17 21 27 31 29
250 252 253 251 250 254 256 258 257 258 261 264 268 272 277 283 286 287 286 288 294 299 303 306 309 312 313 314 315 312 311 313 314 320 328 332 333 332 332 332 331 329 325 321 322 325 329 332 333 332 333 334 336 338 340 342 342 340 337 335 335 337 342 348 356 4 10 13 14 15 17 23 29 34
253 259 263 259 255 256 257 257 255 257 260 263 267 269 272 277 280 280 279 280 287 294 301 307 309 311 313 315 318 316 316 319 320 328 338 338 336 336 337 337 332 323 317 316 318 321 324 326 327 328 329 329 330 332 334 335 338 339 335 330 330 330 334 340 346 355 4 10 12 12 13 18 24 31
258 263 269 270 266 261 259 258 257 260 264 267 269 269 271 276 276 275 273 273 279 287 295 303 309 312 315 320 323 321 319 320 321 328 334 332 331 333 333 331 325 315 309 309 311 314 316 317 318 320 322 323 324 327 330 331 333 335 332 325 324 325 325 331 338 344 354 4 10 11 10 12 18 25
261 261 263 265 265 262 261 261 262 264 266 268 271 273 275 278 277 276 275 274 277 283 291 299 306 312 317 319 325 327 323 318 315 319 323 325 326 326 322 321 321 315 309 308 308 309 309 310 312 314 316 318 321 324 327 328 328 330 327 319 318 318 318 322 329 335 343 355 5 10 9 8 11 17
261 262 262 260 259 259 261 264 265 264 264 265 267 271 274 276 277 278 277 277 279 283 288 294 301 308 313 314 319 326 323 316 315 315 313 316 321 321 316 313 313 313 311 310 309 309 309 309 309 311 313 315 319 322 324 325 323 322 318 311 311 312 311 313 319 325 332 342 356 6 9 7 7 10
261 263 264 262 259 258 261 264 264 262 261 262 264 267 271 274 275 276 276 276 278 281 284 288 292 298 302 304 308 316 317 314 317 321 318 314 315 318 319 318 315 312 311 309 308 308 308 308 308 309 311 314 317 320 321 319 316 313 307 301 301 305 305 305 310 316 320 327 342 358 7 8 6 6
266 266 266 264 263 262 264 266 265 262 260 259 259 261 266 270 272 273 274 274 273 276 278 279 284 291 294 295 300 307 312 312 316 322 322 319 318 319 321 323 322 319 315 311 308 307 306 305 307 308 309 313 317 318 319 317 314 308 301 294 291 294 297 298 301 307 311 314 325 344 360 6 6 5
268 268 268 267 267 267 268 269 269 267 265 264 263 263 265 269 272 273 273 272 271 273 275 277 282 288 290 292 298 303 306 309 312 316 318 319 319 319 318 320 322 320 318 315 311 309 309 307 307 307 309 313 317 318 318 317 315 309 301 292 285 283 287 292 295 299 302 303 308 326 347 1 4 4
268 267 268 268 268 269 269 270 271 272 272 271 271 272 272 274 276 276 274 270 270 274 276 279 285 290 290 292 298 301 302 304 307 311 314 313 313 314 315 316 317 318 318 317 313 312 313 310 308 308 310 313 316 316 316 317 314 309 302 294 285 278 278 284 290 294 296 294 295 307 330 349 358 358
272 272 273 273 273 272 271 270 271 273 273 274 274 274 275 277 279 278 276 271 270 273 276 279 283 288 289 290 294 298 300 303 305 307 308 308 309 310 311 311 313 315 316 315 312 310 311 311 309 309 310 312 314 314 314 314 309 304 302 299 291 281 274 275 282 288 290 288 285 292 309 328 342 347
274 275 277 279 278 278 277 276 274 273 272 273 274 275 275 276 276 277 276 273 271 272 275 278 279 281 285 287 289 293 299 303 305 306 305 306 306 307 307 307 309 312 313 312 309 307 308 310 309 307 309 312 312 311 311 309 304 301 303 304 298 288 277 271 274 280 283 282 279 282 293 306 319 330
270 271 274 275 275 277 280 282 282 279 275 273 272 273 274 274 275 276 277 276 274 273 275 276 276 277 280 283 285 289 296 301 302 303 303 304 304 303 303 303 304 307 309 310 309 305 304 309 308 305 307 310 309 310 310 305 302 301 303 304 302 294 283 273 270 274 277 277 275 277 284 293 302 311
269 270 273 273 273 274 276 279 283 284 283 281 278 276 275 275 276 276 276 276 275 275 275 276 277 279 280 282 285 288 292 295 298 299 300 301 301 300 300 300 301 303 305 308 308 303 301 306 306 303 306 308 306 305 305 301 300 302 301 300 300 297 287 278 272 271 272 272 271 273 280 286 292 298
271 273 274 275 274 273 271 272 276 281 284 285 284 284 283 282 282 279 276 276 278 278 278 278 279 281 283 285 289 291 292 293 295 298 299 298 298 297 297 297 297 298 301 304 305 301 300 304 306 304 306 306 302 298 297 297 297 298 298 297 298 297 291 283 276 272 271 270 269 270 276 282 286 290
272 274 275 274 272 269 267 265 267 272 278 282 283 283 283 283 283 280 278 278 279 280 281 281 282 284 285 285 287 290 292 294 296 297 296 295 296 297 297 296 295 296 299 301 303 301 300 304 308 307 305 304 300 293 288 291 293 294 295 296 296 296 292 287 281 277 275 272 269 269 272 278 282 285
273 274 274 273 270 267 265 263 264 269 275 279 281 282 283 283 282 280 279 279 279 278 279 280 281 282 282 283 284 285 288 291 293 293 292 294 298 299 297 296 296 298 299 300 301 300 300 305 310 308 304 301 297 291 285 285 286 287 289 291 293 294 292 288 284 281 278 275 272 270 270 274 278 279
275 275 275 273 270 267 266 267 268 272 276 279 279 281 282 282 282 283 284 283 281 280 278 277 277 278 279 280 280 281 283 286 288 288 291 296 300 298 295 295 297 297 297 298 299 299 301 306 310 310 308 303 296 291 288 285 281 280 279 280 283 285 285 285 284 283 281 278 275 273 272 272 274 276
273 272 272 271 270 269 269 270 271 273 275 276 276 277 278 279 284 290 290 286 283 281 279 278 276 275 275 275 276 277 279 281 284 286 290 295 298 297 294 294 296 296 295 297 301 302 305 308 308 310 311 307 301 297 295 291 286 283 279 275 275 276 277 278 279 280 281 280 278 277 275 273 273 274
269 269 268 267 267 268 268 269 270 271 272 274 275 276 277 281 287 291 290 286 284 284 283 282 281 278 275 272 272 274 276 278 281 285 289 293 296 295 292 291 292 292 293 296 301 302 303 304 304 306 307 306 303 302 300 297 293 289 285 280 275 273 273 274 274 273 274 275 276 278 277 276 275 274
266 267 267 267 267 268 268 270 271 273 274 275 277 279 281 284 287 289 288 288 287 285 284 285 286 285 282 277 274 273 275 277 280 285 290 294 296 292 289 290 291 291 292 295 299 299 299 299 299 301 302 302 301 302 301 298 294 292 289 286 280 276 274 273 271 269 268 268 270 273 275 276 275 274
264 265 266 267 268 269 270 271 273 275 276 277 279 281 282 283 285 287 289 291 290 287 285 284 284 285 285 283 280 277 276 278 283 287 291 294 293 290 288 290 292 294 296 297 298 297 297 295 295 297 298 298 299 300 299 296 295 294 292 289 286 283 278 274 270 268 268 269 269 269 270 270 271 272
265 264 264 265 266 268 269 271 274 276 277 278 280 280 280 282 284 287 288 289 290 288 286 284 283 283 283 284 284 282 281 283 286 288 289 290 290 291 291 292 293 295 296 297 297 295 293 292 292 293 293 295 296 296 295 294 295 296 295 294 292 289 287 284 279 275 273 272 270 267 266 265 266 269
270 270 269 269 270 271 273 274 275 277 278 279 280 281 282 284 285 286 287 288 289 289 288 286 286 285 284 283 283 283 284 285 286 286 287 287 288 291 292 293 293 293 293 294 294 294 291 289 288 289 290 291 291 290 291 292 293 295 296 296 294 292 291 290 287 284 281 277 271 266 264 265 267 270
275 278 279 279 279 279 279 280 280 280 281 281 281 282 284 284 285 285 286 286 288 289 291 291 291 289 286 283 281 282 283 283 283 284 285 286 288 290 292 293 292 292 292 292 292 292 291 288 288 289 288 286 285 285 287 289 290 292 293 293 293 292 291 290 290 289 287 282 274 268 266 268 270 270
282 283 283 283 283 284 284 285 286 286 285 284 284 284 284 284 285 286 285 286 287 290 292 294 294 294 292 287 283 283 283 283 283 284 285 286 287 290 293 293 291 291 292 292 291 290 290 290 292 291 287 283 280 280 282 286 288 289 289 290 290 291 290 290 290 289 288 287 282 274 270 268 267 266
287 286 284 281 280 281 281 282 284 285 285 285 284 284 283 284 286 287 286 286 286 288 292 295 295 295 294 291 288 287 286 285 285 285 285 286 288 292 295 294 291 291 293 293 292 291 292 294 294 292 289 285 280 279 282 285 286 288 289 289 289 291 292 294 294 292 291 290 285 280 275 271 267 265
290 290 288 284 281 280 280 279 278 278 279 280 282 282 282 282 284 286 286 286 286 287 290 292 293 294 294 292 290 289 286 285 286 287 288 288 290 293 296 294 293 293 295 295 294 294 294 294 292 289 287 285 283 284 286 285 285 288 291 293 293 295 297 299 299 297 293 287 282 280 278 274 270 268
295 296 296 294 291 287 286 285 285 283 281 280 280 280 279 280 281 281 282 283 284 284 284 286 288 291 292 291 290 289 288 288 290 292 292 293 294 295 296 295 295 295 295 296 296 296 295 293 290 285 282 281 282 283 285 285 285 287 291 295 298 299 300 303 304 303 299 291 285 283 280 276 273 272
301 303 303 303 301 299 296 294 292 291 290 288 287 285 284 284 284 284 285 289 290 289 288 288 289 291 292 292 291 292 293 294 295 297 299 301 300 300 299 298 297 297 297 298 298 297 297 296 291 285 280 277 277 277 278 282 285 287 290 293 296 298 302 307 310 309 308 304 299 295 290 284 281 278
305 308 309 310 310 308 305 301 298 297 296 295 296 297 297 297 295 293 294 298 299 298 296 293 293 295 297 297 297 297 298 299 299 302 306 308 306 303 300 299 299 298 298 298 297 298 300 301 299 293 287 282 279 277 276 277 283 288 290 291 292 295 299 302 303 304 304 306 305 302 299 295 291 289
301 303 306 311 315 315 313 312 311 310 306 302 301 303 305 306 306 304 302 302 303 302 300 297 298 299 300 301 302 302 303 303 303 304 305 305 306 304 300 297 297 296 294 293 295 297 299 301 303 300 294 291 288 285 282 282 284 287 289 289 289 291 293 294 295 296 297 299 299 298 298 296 294 294
294 297 301 307 312 316 318 318 316 315 312 308 306 304 302 302 302 302 301 301 300 299 299 297 297 299 300 301 301 301 302 303 303 303 302 303 307 310 309 307 305 302 298 297 299 302 304 305 307 304 297 295 294 290 289 289 289 287 288 289 289 290 291 294 295 295 296 296 294 293 294 293 291 292
293 296 302 306 310 313 316 316 316 315 313 311 309 305 299 295 293 292 292 291 290 288 289 290 291 294 298 300 302 303 305 304 302 301 299 297 299 307 314 315 313 311 308 305 304 306 308 309 310 308 303 298 294 293 296 297 293 289 287 288 289 290 292 294 296 296 296 296 294 294 294 292 291 291
300 302 305 307 310 313 314 315 314 313 312 312 310 308 303 298 294 290 286 283 282 282 283 285 287 289 292 295 298 299 300 301 301 302 300 297 297 301 305 307 308 310 310 307 304 303 304 304 306 309 309 304 299 298 301 299 294 290 288 286 287 290 292 294 294 294 294 296 298 297 295 292 292 292
302 306 307 308 310 313 314 315 315 314 313 312 311 310 309 306 303 300 295 290 288 287 287 287 287 287 287 289 292 293 293 292 294 297 298 298 298 298 299 299 301 303 303 301 299 298 297 298 303 307 308 306 303 301 299 294 291 290 290 288 287 289 291 293 294 293 293 296 299 298 295 294 293 292
302 306 308 309 311 312 313 314 315 316 316 315 312 311 309 308 307 306 304 301 299 297 296 295 294 292 290 289 290 291 291 291 291 294 296 297 297 297 298 299 300 300 298 296 295 294 292 292 296 298 298 299 300 299 297 294 292 292 294 293 292 291 292 294 296 296 296 299 300 296 294 294 293 291
303 305 308 310 311 311 311 312 314 316 319 319 317 315 312 310 308 306 304 303 302 301 300 299 298 297 296 293 291 290 289 289 290 291 293 296 297 297 297 297 296 295 292 291 291 290 288 288 289 288 288 289 290 292 292 292 293 293 293 293 293 293 292 291 293 296 299 302 302 298 294 293 290 287
302 303 306 308 310 310 311 312 314 317 319 320 320 320 318 316 314 311 308 306 305 304 303 302 301 300 299 298 296 294 291 290 289 289 291 293 295 295 295 295 294 294 292 290 289 289 288 286 285 284 284 283 282 282 283 284 287 289 289 288 290 292 290 288 289 291 294 297 299 300 300 294 284 279
300 301 303 305 307 308 309 310 313 316 318 319 320 320 320 319 319 318 316 313 311 309 307 306 304 303 302 301 300 299 297 295 293 291 291 291 292 293 294 294 296 297 296 295 295 294 292 290 286 284 283 281 278 277 276 277 280 282 283 283 285 286 287 288 289 289 289 289 289 292 296 295 286 281
294 297 299 301 302 303 305 307 310 313 314 316 317 318 318 318 317 317 317 316 314 312 311 309 308 306 305 304 303 302 301 300 298 296 295 293 293 294 295 296 297 298 298 298 298 298 296 294 289 285 282 280 277 275 275 276 277 279 281 283 285 286 289 294 294 292 292 291 288 287 289 289 285 282